Location: Unnamed
(29.8582°N, 98.1264°W)
Time: 00:09:13
(UTC-06:00)

ARIANE 6 FM1 Upper Stage - Visible Passes

Search period start: 15 January 2026 00:00
Search period end: 25 January 2026 00:00
Orbit: 522 x 610 km, 62.0° (Epoch: 14 January)

Date Brightness Start Highest point End Pass type
(mag) Time Alt. Az. Time Alt. Az. Time Alt. Az.
15 Jan 4.6 05:38:24 17° NNE 05:40:17 23° NE 05:43:32 10° ESE visible
16 Jan 3.9 05:39:17 29° NNE 05:40:33 36° NE 05:44:18 10° SE visible
16 Jan 4.6 19:31:20 10° SSE 19:32:37 16° SSE 19:32:37 16° SSE visible
17 Jan 2.9 05:40:16 54° NNE 05:40:47 60° ENE 05:44:46 10° SE visible
17 Jan 3.6 19:30:53 10° S 19:33:48 32° SE 19:33:48 32° SE visible
18 Jan 2.6 05:41:19 71° S 05:41:19 71° S 05:45:00 10° SSE visible
18 Jan 2.5 19:30:46 10° SSW 19:34:51 62° ESE 19:34:59 62° ESE visible
19 Jan 3.6 05:42:26 33° SSW 05:42:26 33° SSW 05:45:00 10° S visible
19 Jan 2.6 19:30:53 10° SSW 19:35:01 79° WNW 19:36:06 47° NNE visible
20 Jan 4.7 05:43:36 16° SSW 05:43:36 16° SSW 05:44:42 10° S visible
20 Jan 3.5 19:31:13 10° SW 19:35:13 47° WNW 19:37:09 26° N visible
21 Jan 4.3 19:31:49 10° WSW 19:35:26 29° NW 19:38:06 15° N visible
22 Jan 5.0 19:32:42 10° W 19:35:43 19° NW 19:38:42 10° N visible
23 Jan 5.3 19:34:07 10° WNW 19:36:02 13° NW 19:37:57 10° NNW visible
